Retour au catalogue

EZIE-C

ActifScienceSSO
NORAD 63249·PAYLOAD·🇺🇸 United States

Lancé Mar 15, 2025 depuis Vandenberg Space Force Base

Loading…

Prochains Passages (prochaines 24 heures)

TLE

FraisSource: Space-Track

Époque: Sep 14, 2026, 15:22 UTC

1 63249U 25052AR  26257.64077872  .00003545  00000-0  30635-3 0  9998
2 63249  97.6731 148.2120 0001203 281.9720  78.1368 14.97848505 82051

Suivez EZIE-C en temps réel avec AllMySat

Download on the App Store